| time (UTC) | temp C | wind direction | speed KPH | gust KPH | rain 1hr cm | rain 24hr cm | rain mn cm | humidity % | barometer mb |
| 20260503203515 | 16 | 293 | 9.7 | 19.3 | 0.00 | 0.00 | 0.00 | 32 | 1009.6 |
| 20260503203015 | 16 | 270 | 9.7 | 17.7 | 0.00 | 0.00 | 0.00 | 30 | 1009.6 |
| 20260503202515 | 16 | 270 | 6.4 | 17.7 | 0.00 | 0.00 | 0.00 | 35 | 1009.5 |
| 20260503202015 | 16 | 293 | 8.0 | 19.3 | 0.00 | 0.00 | 0.00 | 31 | 1009.7 |
| 20260503201515 | 15 | 315 | 8.0 | 16.1 | 0.00 | 0.00 | 0.00 | 31 | 1009.6 |
| 20260503201015 | 15 | 315 | 8.0 | 19.3 | 0.00 | 0.00 | 0.00 | 32 | 1009.7 |
| 20260503200515 | 16 | 248 | 11.3 | 20.9 | 0.00 | 0.00 | 0.00 | 34 | 1009.8 |
| 20260503200015 | 16 | 293 | 12.9 | 25.7 | 0.00 | 0.00 | 0.00 | 34 | 1009.7 |
| 20260503195515 | 16 | 248 | 9.7 | 19.3 | 0.00 | 0.00 | 0.00 | 33 | 1009.7 |
| 20260503195015 | 16 | 315 | 6.4 | 17.7 | 0.00 | 0.00 | 0.00 | 35 | 1009.8 |
| 20260503194515 | 16 | 338 | 4.8 | 16.1 | 0.00 | 0.00 | 0.00 | 36 | 1009.8 |
| 20260503194015 | 16 | 315 | 6.4 | 16.1 | 0.00 | 0.00 | 0.00 | 33 | 1009.9 |
| 20260503193515 | 16 | 315 | 6.4 | 20.9 | 0.00 | 0.00 | 0.00 | 34 | 1009.9 |
| 20260503193015 | 16 | 315 | 8.0 | 16.1 | 0.00 | 0.00 | 0.00 | 39 | 1010.1 |
| 20260503192515 | 16 | 270 | 6.4 | 16.1 | 0.00 | 0.00 | 0.00 | 34 | 1010.2 |
| 20260503192015 | 16 | 270 | 11.3 | 27.4 | 0.00 | 0.00 | 0.00 | 36 | 1010.3 |
| 20260503191515 | 16 | 270 | 12.9 | 27.4 | 0.00 | 0.00 | 0.00 | 39 | 1010.3 |
| 20260503191015 | 16 | 315 | 6.4 | 16.1 | 0.00 | 0.00 | 0.00 | 39 | 1010.4 |
| 20260503190515 | 15 | 0 | 4.8 | 12.9 | 0.00 | 0.00 | 0.00 | 36 | 1010.4 |
| 20260503190015 | 15 | 338 | 8.0 | 20.9 | 0.00 | 0.00 | 0.00 | 38 | 1010.3 |
| 20260503185517 | 15 | 293 | 11.3 | 24.1 | 0.00 | 0.00 | 0.00 | 35 | 1010.5 |
| 20260503185017 | 15 | 315 | 8.0 | 20.9 | 0.00 | 0.00 | 0.00 | 37 | 1010.5 |
| 20260503184517 | 16 | 315 | 8.0 | 14.5 | 0.00 | 0.00 | 0.00 | 36 | 1010.5 |
| 20260503184017 | 15 | 270 | 9.7 | 20.9 | 0.00 | 0.00 | 0.00 | 40 | 1010.4 |
| 20260503183517 | 15 | 315 | 9.7 | 22.5 | 0.00 | 0.00 | 0.00 | 39 | 1010.6 |
| 20260503183022 | 15 | 270 | 11.3 | 22.5 | 0.00 | 0.00 | 0.00 | 37 | 1010.6 |
| 20260503182517 | 15 | 315 | 9.7 | 22.5 | 0.00 | 0.00 | 0.00 | 39 | 1010.6 |
| 20260503182017 | 14 | 270 | 11.3 | 24.1 | 0.00 | 0.00 | 0.00 | 39 | 1010.7 |
| 20260503181517 | 14 | 315 | 8.0 | 20.9 | 0.00 | 0.00 | 0.00 | 40 | 1010.7 |
| 20260503181017 | 14 | 315 | 8.0 | 19.3 | 0.00 | 0.00 | 0.00 | 38 | 1010.7 |
| 20260503180517 | 14 | 315 | 4.8 | 11.3 | 0.00 | 0.00 | 0.00 | 45 | 1010.7 |
| 20260503180017 | 13 | 315 | 4.8 | 11.3 | 0.00 | 0.00 | 0.00 | 46 | 1010.7 |
| 20260503175517 | 13 | 315 | 6.4 | 16.1 | 0.00 | 0.00 | 0.00 | 40 | 1010.8 |
| 20260503175017 | 12 | 315 | 8.0 | 22.5 | 0.00 | 0.00 | 0.00 | 43 | 1010.9 |
| 20260503174516 | 12 | 315 | 6.4 | 19.3 | 0.00 | 0.00 | 0.00 | 47 | 1010.9 |
| 20260503174016 | 11 | 315 | 6.4 | 14.5 | 0.00 | 0.00 | 0.00 | 46 | 1011.0 |
| 20260503173517 | 11 | 270 | 9.7 | 17.7 | 0.00 | 0.00 | 0.00 | 45 | 1011.0 |
| 20260503173017 | 11 | 315 | 6.4 | 12.9 | 0.00 | 0.00 | 0.00 | 44 | 1011.1 |
| 20260503172517 | 11 | 315 | 4.8 | 14.5 | 0.00 | 0.00 | 0.00 | 45 | 1011.1 |
| 20260503172017 | 11 | 315 | 4.8 | 16.1 | 0.00 | 0.00 | 0.00 | 46 | 1011.1 |
| 20260503171517 | 11 | 338 | 8.0 | 16.1 | 0.00 | 0.00 | 0.00 | 46 | 1011.2 |
| 20260503171016 | 11 | 293 | 4.8 | 12.9 | 0.00 | 0.00 | 0.00 | 46 | 1011.2 |
| 20260503170516 | 11 | 315 | 3.2 | 8.0 | 0.00 | 0.00 | 0.00 | 46 | 1011.1 |
| 20260503150516 | 12 | 315 | 8.0 | 17.7 | 0.00 | 0.00 | 0.00 | 43 | 1011.5 |
| 20260503131016 | 10 | 293 | 3.2 | 8.0 | 0.00 | 0.00 | 0.00 | 58 | 1011.8 |
| 20260503130516 | 9 | 338 | 3.2 | 8.0 | 0.00 | 0.00 | 0.00 | 61 | 1011.9 |
| 20260503110516 | 3 | 248 | 3.2 | 8.0 | 0.00 | 0.00 | 0.00 | 77 | 1011.4 |
| 20260503081515 | 5 | 270 | 3.2 | 6.4 | 0.00 | 0.13 | 0.00 | 72 | 1010.9 |
| 20260503081016 | 5 | 293 | 3.2 | 8.0 | 0.00 | 0.15 | 0.00 | 72 | 1010.9 |
| 20260503080516 | 5 | 270 | 3.2 | 6.4 | 0.00 | 0.18 | 0.00 | 74 | 1010.9 |
| 20260503072515 | 4 | 0.0 | 0.0 | 0.00 | 0.20 | 0.00 | 81 | 1010.9 | |
| 20260503072016 | 4 | 0.0 | 0.0 | 0.00 | 0.20 | 0.00 | 80 | 1010.9 | |
| 20260503071516 | 4 | 0.0 | 0.0 | 0.00 | 0.20 | 0.00 | 80 | 1010.9 | |
| 20260503071015 | 4 | 0.0 | 0.0 | 0.00 | 0.20 | 0.00 | 80 | 1010.9 | |
| 20260503070515 | 5 | 0.0 | 0.0 | 0.00 | 0.20 | 0.00 | 82 | 1010.9 | |
| 20260503055015 | 5 | 0.0 | 0.0 | 0.00 | 0.25 | 0.00 | 80 | 1011.4 | |
| 20260503054515 | 5 | 0.0 | 0.0 | 0.00 | 0.25 | 0.00 | 79 | 1011.4 | |
| 20260503054015 | 5 | 0.0 | 0.0 | 0.00 | 0.25 | 0.00 | 78 | 1011.3 | |
| 20260503053515 | 5 | 0.0 | 0.0 | 0.00 | 0.25 | 0.00 | 78 | 1011.5 | |
| 20260503053015 | 5 | 0.0 | 0.0 | 0.00 | 0.25 | 0.00 | 79 | 1011.4 | |
| 20260503052515 | 5 | 0.0 | 0.0 | 0.00 | 0.25 | 0.00 | 78 | 1011.5 | |
| 20260503052015 | 5 | 0.0 | 0.0 | 0.00 | 0.25 | 0.00 | 77 | 1011.5 | |
| 20260503051515 | 5 | 0.0 | 0.0 | 0.00 | 0.25 | 0.00 | 77 | 1011.5 | |
| 20260503051015 | 5 | 0.0 | 0.0 | 0.00 | 0.25 | 0.00 | 77 | 1011.7 | |
| 20260503050515 | 5 | 0.0 | 0.0 | 0.00 | 0.25 | 0.00 | 75 | 1011.7 | |
| 20260503050015 | 5 | 0.0 | 0.0 | 0.00 | 0.25 | 0.00 | 74 | 1011.7 | |
| 20260503045515 | 5 | 0.0 | 0.0 | 0.00 | 0.25 | 0.00 | 74 | 1011.7 | |
| 20260503045015 | 5 | 0.0 | 0.0 | 0.00 | 0.25 | 0.00 | 73 | 1011.7 | |
| 20260503044516 | 5 | 0.0 | 0.0 | 0.00 | 0.25 | 0.00 | 73 | 1011.7 | |
| 20260503044015 | 5 | 0.0 | 0.0 | 0.00 | 0.25 | 0.00 | 72 | 1011.7 | |
| 20260503043515 | 5 | 0.0 | 0.0 | 0.00 | 0.25 | 0.00 | 72 | 1011.7 | |
| 20260503043015 | 5 | 0.0 | 0.0 | 0.00 | 0.25 | 0.00 | 73 | 1011.8 | |
| 20260503042515 | 5 | 0.0 | 0.0 | 0.00 | 0.25 | 0.00 | 72 | 1011.8 | |
| 20260503042015 | 5 | 0.0 | 0.0 | 0.00 | 0.25 | 0.00 | 71 | 1011.8 | |
| 20260503041515 | 5 | 0.0 | 0.0 | 0.00 | 0.25 | 0.00 | 69 | 1011.9 | |
| 20260503041015 | 6 | 0.0 | 0.0 | 0.00 | 0.25 | 0.00 | 69 | 1011.8 | |
| 20260503040515 | 6 | 0.0 | 0.0 | 0.00 | 0.25 | 0.00 | 68 | 1011.8 | |
| 20260503040015 | 6 | 0.0 | 0.0 | 0.00 | 0.25 | 0.25 | 66 | 1011.8 | |
| 20260503035516 | 6 | 0.0 | 0.0 | 0.00 | 0.25 | 0.25 | 67 | 1011.8 | |
| 20260503035016 | 6 | 0.0 | 0.0 | 0.00 | 0.25 | 0.25 | 66 | 1011.9 | |
| 20260503034516 | 6 | 0.0 | 3.2 | 0.00 | 0.25 | 0.25 | 67 | 1011.8 | |
| 20260503034016 | 6 | 0.0 | 3.2 | 0.00 | 0.25 | 0.25 | 65 | 1011.8 | |
| 20260503033516 | 6 | 0.0 | 0.0 | 0.00 | 0.25 | 0.25 | 63 | 1011.8 | |
| 20260503033016 | 6 | 0.0 | 0.0 | 0.00 | 0.25 | 0.25 | 65 | 1011.8 | |
| 20260503032516 | 6 | 0.0 | 0.0 | 0.00 | 0.25 | 0.25 | 64 | 1011.8 | |
| 20260503032016 | 6 | 0.0 | 0.0 | 0.00 | 0.25 | 0.25 | 64 | 1011.8 | |
| 20260503031516 | 6 | 0.0 | 1.6 | 0.00 | 0.25 | 0.25 | 65 | 1011.7 | |
| 20260503031016 | 7 | 0.0 | 0.0 | 0.00 | 0.25 | 0.25 | 65 | 1011.7 | |
| 20260503030516 | 7 | 0.0 | 0.0 | 0.00 | 0.25 | 0.25 | 65 | 1011.7 | |
| 20260503030016 | 7 | 0.0 | 0.0 | 0.00 | 0.25 | 0.25 | 64 | 1011.7 | |
| 20260503025516 | 7 | 0.0 | 0.0 | 0.00 | 0.25 | 0.25 | 65 | 1011.7 | |
| 20260503025016 | 7 | 0.0 | 0.0 | 0.00 | 0.25 | 0.25 | 66 | 1011.8 | |
| 20260503024516 | 7 | 0.0 | 0.0 | 0.00 | 0.25 | 0.25 | 64 | 1011.7 | |
| 20260503024016 | 7 | 0.0 | 0.0 | 0.00 | 0.25 | 0.25 | 64 | 1011.8 | |
| 20260503023516 | 7 | 0.0 | 1.6 | 0.00 | 0.25 | 0.25 | 61 | 1011.8 | |
| 20260503023016 | 7 | 0.0 | 1.6 | 0.00 | 0.25 | 0.25 | 58 | 1011.9 | |
| 20260503022516 | 7 | 0.0 | 0.0 | 0.00 | 0.25 | 0.25 | 58 | 1011.8 | |
| 20260503022016 | 8 | 0.0 | 0.0 | 0.00 | 0.25 | 0.25 | 59 | 1011.9 | |
| 20260503021516 | 8 | 0.0 | 0.0 | 0.00 | 0.25 | 0.25 | 64 | 1011.9 | |
| 20260503021016 | 8 | 0.0 | 1.6 | 0.00 | 0.25 | 0.25 | 60 | 1011.9 | |
| 20260503020516 | 8 | 0.0 | 3.2 | 0.00 | 0.25 | 0.25 | 56 | 1011.9 | |
| 20260503020016 | 8 | 293 | 1.6 | 3.2 | 0.00 | 0.25 | 0.25 | 55 | 1011.8 |
| 20260503015516 | 8 | 293 | 1.6 | 4.8 | 0.00 | 0.25 | 0.25 | 56 | 1011.8 |
| 20260503015016 | 8 | 293 | 1.6 | 4.8 | 0.00 | 0.25 | 0.25 | 57 | 1011.7 |
| 20260503014516 | 8 | 293 | 1.6 | 3.2 | 0.00 | 0.25 | 0.25 | 60 | 1011.8 |
| 20260503014016 | 8 | 0.0 | 1.6 | 0.00 | 0.25 | 0.25 | 64 | 1011.7 | |
| 20260503013516 | 8 | 0.0 | 0.0 | 0.00 | 0.25 | 0.25 | 66 | 1011.6 | |
| 20260503013016 | 8 | 0.0 | 3.2 | 0.00 | 0.25 | 0.25 | 64 | 1011.6 | |
| 20260503012516 | 8 | 0.0 | 0.0 | 0.00 | 0.25 | 0.25 | 59 | 1011.6 | |
| 20260503012016 | 8 | 0.0 | 0.0 | 0.00 | 0.25 | 0.25 | 59 | 1011.5 | |
| 20260503011516 | 8 | 0.0 | 0.0 | 0.00 | 0.25 | 0.25 | 59 | 1011.6 | |
| 20260503011016 | 8 | 0.0 | 0.0 | 0.00 | 0.25 | 0.25 | 60 | 1011.5 | |
| 20260503010516 | 8 | 0.0 | 0.0 | 0.00 | 0.25 | 0.25 | 58 | 1011.5 | |
| 20260503010016 | 9 | 0.0 | 0.0 | 0.00 | 0.25 | 0.25 | 56 | 1011.4 | |
| 20260503005516 | 9 | 0.0 | 0.0 | 0.00 | 0.25 | 0.25 | 60 | 1011.3 | |
| 20260503005016 | 9 | 0.0 | 0.0 | 0.00 | 0.25 | 0.25 | 54 | 1011.2 | |
| 20260503004516 | 10 | 0.0 | 0.0 | 0.00 | 0.25 | 0.25 | 54 | 1011.2 | |
| 20260503004016 | 10 | 0.0 | 0.0 | 0.00 | 0.25 | 0.25 | 53 | 1011.2 | |
| 20260503003516 | 10 | 0.0 | 0.0 | 0.00 | 0.25 | 0.25 | 52 | 1011.2 | |
| 20260503003016 | 10 | 0.0 | 0.0 | 0.00 | 0.25 | 0.25 | 55 | 1011.1 | |
| 20260503002516 | 10 | 0.0 | 0.0 | 0.00 | 0.25 | 0.25 | 53 | 1011.1 | |
| 20260503002016 | 10 | 0.0 | 0.0 | 0.00 | 0.25 | 0.25 | 50 | 1011.0 | |
| 20260503001516 | 11 | 0.0 | 0.0 | 0.00 | 0.25 | 0.25 | 51 | 1011.1 | |
| 20260503001016 | 11 | 0.0 | 3.2 | 0.00 | 0.25 | 0.25 | 49 | 1011.0 | |
| 20260503000516 | 11 | 0.0 | 3.2 | 0.00 | 0.25 | 0.25 | 49 | 1010.9 | |
| 20260503000015 | 11 | 293 | 3.2 | 4.8 | 0.00 | 0.25 | 0.25 | 46 | 1010.9 |
| 20260502235516 | 11 | 293 | 3.2 | 8.0 | 0.00 | 0.25 | 0.25 | 45 | 1011.0 |
| 20260502235016 | 11 | 293 | 3.2 | 11.3 | 0.00 | 0.25 | 0.25 | 45 | 1010.9 |
| 20260502234516 | 11 | 293 | 1.6 | 4.8 | 0.00 | 0.25 | 0.25 | 45 | 1010.9 |
| 20260502234015 | 12 | 293 | 1.6 | 6.4 | 0.00 | 0.25 | 0.25 | 45 | 1010.9 |
| 20260502233515 | 12 | 293 | 1.6 | 4.8 | 0.00 | 0.25 | 0.25 | 44 | 1010.9 |
| 20260502233015 | 12 | 315 | 3.2 | 11.3 | 0.00 | 0.25 | 0.25 | 44 | 1010.8 |
| 20260502232515 | 12 | 315 | 3.2 | 8.0 | 0.00 | 0.25 | 0.25 | 44 | 1010.7 |
| 20260502232015 | 12 | 293 | 3.2 | 8.0 | 0.00 | 0.25 | 0.25 | 44 | 1010.7 |
| 20260502231515 | 12 | 248 | 3.2 | 8.0 | 0.00 | 0.25 | 0.25 | 44 | 1010.8 |
| 20260502231016 | 12 | 270 | 3.2 | 12.9 | 0.00 | 0.25 | 0.25 | 43 | 1010.7 |
| 20260502230516 | 12 | 293 | 3.2 | 8.0 | 0.00 | 0.25 | 0.25 | 43 | 1010.6 |
| 20260502230016 | 12 | 270 | 3.2 | 9.7 | 0.00 | 0.25 | 0.25 | 42 | 1010.7 |
| 20260502225515 | 13 | 270 | 6.4 | 16.1 | 0.00 | 0.25 | 0.25 | 41 | 1010.6 |
| 20260502225016 | 13 | 293 | 9.7 | 16.1 | 0.00 | 0.25 | 0.25 | 41 | 1010.6 |
| 20260502224515 | 13 | 293 | 4.8 | 14.5 | 0.00 | 0.25 | 0.25 | 41 | 1010.6 |
| 20260502224015 | 13 | 293 | 6.4 | 11.3 | 0.00 | 0.25 | 0.25 | 40 | 1010.5 |
| 20260502223515 | 13 | 270 | 8.0 | 19.3 | 0.00 | 0.25 | 0.25 | 40 | 1010.5 |
| 20260502223015 | 13 | 293 | 6.4 | 16.1 | 0.00 | 0.25 | 0.25 | 41 | 1010.5 |
| 20260502222515 | 13 | 270 | 6.4 | 16.1 | 0.00 | 0.25 | 0.25 | 42 | 1010.4 |
| 20260502222015 | 13 | 315 | 9.7 | 19.3 | 0.00 | 0.25 | 0.25 | 40 | 1010.4 |
| 20260502221515 | 13 | 315 | 6.4 | 12.9 | 0.00 | 0.25 | 0.25 | 42 | 1010.3 |
| 20260502221015 | 13 | 315 | 1.6 | 6.4 | 0.00 | 0.25 | 0.25 | 42 | 1010.2 |
| 20260502220515 | 13 | 315 | 3.2 | 6.4 | 0.00 | 0.25 | 0.25 | 46 | 1010.2 |
| 20260502220015 | 13 | 315 | 3.2 | 6.4 | 0.00 | 0.25 | 0.25 | 42 | 1010.3 |
| 20260502215515 | 13 | 315 | 4.8 | 16.1 | 0.00 | 0.25 | 0.25 | 43 | 1010.3 |
| 20260502215015 | 13 | 315 | 4.8 | 12.9 | 0.00 | 0.25 | 0.25 | 42 | 1010.2 |
| 20260502214516 | 13 | 315 | 6.4 | 11.3 | 0.00 | 0.25 | 0.25 | 41 | 1010.2 |
| 20260502214015 | 14 | 293 | 6.4 | 16.1 | 0.00 | 0.25 | 0.25 | 40 | 1010.2 |
| 20260502213515 | 14 | 338 | 4.8 | 8.0 | 0.00 | 0.25 | 0.25 | 40 | 1010.1 |
| 20260502213015 | 14 | 315 | 4.8 | 12.9 | 0.00 | 0.25 | 0.25 | 39 | 1010.0 |
| 20260502212515 | 15 | 270 | 1.6 | 6.4 | 0.00 | 0.25 | 0.25 | 39 | 1010.0 |
| 20260502212015 | 15 | 270 | 3.2 | 8.0 | 0.00 | 0.25 | 0.25 | 38 | 1009.9 |
| 20260502211515 | 15 | 293 | 4.8 | 11.3 | 0.00 | 0.25 | 0.25 | 37 | 1009.9 |
| 20260502211015 | 15 | 315 | 4.8 | 14.5 | 0.00 | 0.25 | 0.25 | 38 | 1009.8 |
| 20260502210515 | 15 | 270 | 6.4 | 17.7 | 0.00 | 0.25 | 0.25 | 38 | 1009.9 |
| 20260502210015 | 15 | 270 | 3.2 | 12.9 | 0.00 | 0.25 | 0.25 | 40 | 1009.9 |
| 20260502205515 | 15 | 248 | 4.8 | 11.3 | 0.00 | 0.25 | 0.25 | 40 | 1009.8 |
| 20260502205015 | 16 | 270 | 4.8 | 11.3 | 0.00 | 0.25 | 0.25 | 42 | 1009.8 |
| 20260502204515 | 16 | 270 | 4.8 | 16.1 | 0.00 | 0.25 | 0.25 | 38 | 1009.8 |
| 20260502204015 | 16 | 270 | 6.4 | 16.1 | 0.00 | 0.25 | 0.25 | 37 | 1009.8 |